Year,Month,Day,Hour,Minute,Value (Times are PST for temperature in C)
2012,02,24,00,00,4.40
2012,02,24,00,01,4.40
2012,02,24,00,02,4.40
2012,02,24,00,03,4.40
2012,02,24,00,04,4.40
2012,02,24,00,05,4.40
2012,02,24,00,06,4.30
2012,02,24,00,07,4.30
2012,02,24,00,08,4.30
2012,02,24,00,09,4.30
2012,02,24,00,10,4.30
2012,02,24,00,11,4.30
2012,02,24,00,12,4.30
2012,02,24,00,13,4.30
2012,02,24,00,14,4.30
2012,02,24,00,15,4.30
2012,02,24,00,16,4.30
2012,02,24,00,17,4.30
2012,02,24,00,18,4.30
2012,02,24,00,19,4.30
2012,02,24,00,20,4.30
2012,02,24,00,21,4.30
2012,02,24,00,22,4.30
2012,02,24,00,23,4.30
2012,02,24,00,24,4.30
2012,02,24,00,25,4.30
2012,02,24,00,26,4.30
2012,02,24,00,27,4.30
2012,02,24,00,28,4.30
2012,02,24,00,29,4.30
2012,02,24,00,30,4.30
2012,02,24,00,31,4.30
2012,02,24,00,32,4.30
2012,02,24,00,33,4.30
2012,02,24,00,34,4.30
2012,02,24,00,35,4.30
2012,02,24,00,36,4.30
2012,02,24,00,37,4.30
2012,02,24,00,38,4.30
2012,02,24,00,39,4.30
2012,02,24,00,40,4.30
2012,02,24,00,41,4.30
2012,02,24,00,42,4.30
2012,02,24,00,43,4.30
2012,02,24,00,44,4.30
2012,02,24,00,45,4.30
2012,02,24,00,46,4.30
2012,02,24,00,47,4.30
2012,02,24,00,48,4.30
2012,02,24,00,49,4.30
2012,02,24,00,50,4.30
2012,02,24,00,51,4.30
2012,02,24,00,52,4.30
2012,02,24,00,53,4.20
2012,02,24,00,54,4.20
2012,02,24,00,55,4.20
2012,02,24,00,56,4.10
2012,02,24,00,57,4.10
2012,02,24,00,58,4.10
2012,02,24,00,59,4.10
2012,02,24,01,00,4.10
2012,02,24,01,01,4.10
2012,02,24,01,02,4.10
2012,02,24,01,03,4.10
2012,02,24,01,04,4.10
2012,02,24,01,05,4.00
2012,02,24,01,06,4.00
2012,02,24,01,07,3.90
2012,02,24,01,08,3.90
2012,02,24,01,09,3.90
2012,02,24,01,10,3.90
2012,02,24,01,11,3.90
2012,02,24,01,12,3.90
2012,02,24,01,13,3.90
2012,02,24,01,14,3.90
2012,02,24,01,15,3.80
2012,02,24,01,16,3.80
2012,02,24,01,17,3.80
2012,02,24,01,18,3.80
2012,02,24,01,19,3.80
2012,02,24,01,20,3.80
2012,02,24,01,21,3.70
2012,02,24,01,22,3.70
2012,02,24,01,23,3.70
2012,02,24,01,24,3.70
2012,02,24,01,25,3.70
2012,02,24,01,26,3.70
2012,02,24,01,27,3.70
2012,02,24,01,28,3.80
2012,02,24,01,29,3.70
2012,02,24,01,30,3.70
2012,02,24,01,31,3.70
2012,02,24,01,32,3.70
2012,02,24,01,33,3.70
2012,02,24,01,34,3.70
2012,02,24,01,35,3.80
2012,02,24,01,36,3.80
2012,02,24,01,37,3.80
2012,02,24,01,38,3.80
2012,02,24,01,39,3.80
2012,02,24,01,40,3.80
2012,02,24,01,41,3.80
2012,02,24,01,42,3.80
2012,02,24,01,43,3.80
2012,02,24,01,44,3.80
2012,02,24,01,45,3.80
2012,02,24,01,46,3.80
2012,02,24,01,47,3.80
2012,02,24,01,48,3.80
2012,02,24,01,49,3.80
2012,02,24,01,50,3.80
2012,02,24,01,51,3.80
2012,02,24,01,52,3.80
2012,02,24,01,53,3.80
2012,02,24,01,54,3.80
2012,02,24,01,55,3.80
2012,02,24,01,56,3.80
2012,02,24,01,57,3.80
2012,02,24,01,58,3.80
2012,02,24,01,59,3.80
2012,02,24,02,00,3.80
2012,02,24,02,01,3.80
2012,02,24,02,02,3.80
2012,02,24,02,03,3.80
2012,02,24,02,04,3.80
2012,02,24,02,05,3.80
2012,02,24,02,06,3.80
2012,02,24,02,07,3.80
2012,02,24,02,08,3.80
2012,02,24,02,09,3.80
2012,02,24,02,10,3.80
2012,02,24,02,11,3.90
2012,02,24,02,12,3.90
2012,02,24,02,13,3.90
2012,02,24,02,14,3.80
2012,02,24,02,15,3.80
2012,02,24,02,16,3.80
2012,02,24,02,17,3.90
2012,02,24,02,18,3.80
2012,02,24,02,19,3.90
2012,02,24,02,20,3.90
2012,02,24,02,21,3.90
2012,02,24,02,22,3.90
2012,02,24,02,23,3.90
2012,02,24,02,24,4.00
2012,02,24,02,25,4.00
2012,02,24,02,26,4.00
2012,02,24,02,27,3.90
2012,02,24,02,28,3.90
2012,02,24,02,29,3.90
2012,02,24,02,30,3.90
2012,02,24,02,31,3.90
2012,02,24,02,32,4.00
2012,02,24,02,33,4.00
2012,02,24,02,34,4.00
2012,02,24,02,35,4.00
2012,02,24,02,36,4.00
2012,02,24,02,37,4.00
2012,02,24,02,38,4.00
2012,02,24,02,39,4.00
2012,02,24,02,40,3.90
2012,02,24,02,41,3.90
2012,02,24,02,42,3.90
2012,02,24,02,43,3.90
2012,02,24,02,44,3.90
2012,02,24,02,45,3.90
2012,02,24,02,46,3.90
2012,02,24,02,47,3.90
2012,02,24,02,48,3.90
2012,02,24,02,49,3.90
2012,02,24,02,50,3.90
2012,02,24,02,51,3.90
2012,02,24,02,52,3.90
2012,02,24,02,53,3.90
2012,02,24,02,54,3.90
2012,02,24,02,55,3.80
2012,02,24,02,56,3.80
2012,02,24,02,57,3.80
2012,02,24,02,58,3.90
2012,02,24,02,59,3.90
2012,02,24,03,00,3.90
2012,02,24,03,01,3.80
2012,02,24,03,02,3.80
2012,02,24,03,03,3.80
2012,02,24,03,04,3.80
2012,02,24,03,05,3.80
2012,02,24,03,06,3.80
2012,02,24,03,07,3.80
2012,02,24,03,08,3.80
2012,02,24,03,09,3.80
2012,02,24,03,10,3.80
2012,02,24,03,11,3.80
2012,02,24,03,12,3.80
2012,02,24,03,13,3.80
2012,02,24,03,14,3.80
2012,02,24,03,15,3.80
2012,02,24,03,16,3.80
2012,02,24,03,17,3.80
2012,02,24,03,18,3.80
2012,02,24,03,19,3.80
2012,02,24,03,20,3.80
2012,02,24,03,21,3.80
2012,02,24,03,22,3.80
2012,02,24,03,23,3.80
2012,02,24,03,24,3.80
2012,02,24,03,25,3.80
2012,02,24,03,26,3.80
2012,02,24,03,27,3.80
2012,02,24,03,28,3.80
2012,02,24,03,29,3.80
2012,02,24,03,30,3.80
2012,02,24,03,31,3.80
2012,02,24,03,32,3.80
2012,02,24,03,33,3.80
2012,02,24,03,34,3.80
2012,02,24,03,35,3.80
2012,02,24,03,36,3.80
2012,02,24,03,37,3.80
2012,02,24,03,38,3.80
2012,02,24,03,39,3.80
2012,02,24,03,40,3.80
2012,02,24,03,41,3.80
2012,02,24,03,42,3.80
2012,02,24,03,43,3.80
2012,02,24,03,44,3.80
2012,02,24,03,45,3.80
2012,02,24,03,46,3.90
2012,02,24,03,47,3.90
2012,02,24,03,48,3.90
2012,02,24,03,49,3.90
2012,02,24,03,50,3.90
2012,02,24,03,51,3.90
2012,02,24,03,52,3.90
2012,02,24,03,53,3.90
2012,02,24,03,54,4.00
2012,02,24,03,55,4.00
2012,02,24,03,56,4.00
2012,02,24,03,57,4.00
2012,02,24,03,58,4.10
2012,02,24,03,59,4.10
2012,02,24,04,00,4.10
2012,02,24,04,01,4.10
2012,02,24,04,02,4.20
2012,02,24,04,03,4.30
2012,02,24,04,04,4.30
2012,02,24,04,05,4.30
2012,02,24,04,06,4.30
2012,02,24,04,07,4.40
2012,02,24,04,08,4.40
2012,02,24,04,09,4.40
2012,02,24,04,10,4.40
2012,02,24,04,11,4.40
2012,02,24,04,12,4.50
2012,02,24,04,13,4.50
2012,02,24,04,14,4.50
2012,02,24,04,15,4.50
2012,02,24,04,16,4.50
2012,02,24,04,17,4.60
2012,02,24,04,18,4.60
2012,02,24,04,19,4.60
2012,02,24,04,20,4.60
2012,02,24,04,21,4.60
2012,02,24,04,22,4.60
2012,02,24,04,23,4.60
2012,02,24,04,24,4.60
2012,02,24,04,25,4.70
2012,02,24,04,26,4.70
2012,02,24,04,27,4.70
2012,02,24,04,28,4.70
2012,02,24,04,29,4.70
2012,02,24,04,30,4.80
2012,02,24,04,31,4.80
2012,02,24,04,32,4.80
2012,02,24,04,33,4.80
2012,02,24,04,34,4.80
2012,02,24,04,35,4.80
2012,02,24,04,36,4.80
2012,02,24,04,37,4.80
2012,02,24,04,38,4.90
2012,02,24,04,39,4.90
2012,02,24,04,40,4.90
2012,02,24,04,41,4.90
2012,02,24,04,42,4.90
2012,02,24,04,43,4.90
2012,02,24,04,44,4.90
2012,02,24,04,45,4.90
2012,02,24,04,46,4.90
2012,02,24,04,47,4.90
2012,02,24,04,48,4.90
2012,02,24,04,49,4.90
2012,02,24,04,50,4.90
2012,02,24,04,51,4.90
2012,02,24,04,52,4.90
2012,02,24,04,53,4.90
2012,02,24,04,54,4.90
2012,02,24,04,55,4.90
2012,02,24,04,56,4.90
2012,02,24,04,57,4.90
2012,02,24,04,58,4.90
2012,02,24,04,59,4.90
2012,02,24,05,00,4.90
2012,02,24,05,01,4.90
2012,02,24,05,02,5.00
2012,02,24,05,03,5.00
2012,02,24,05,04,4.90
2012,02,24,05,05,4.90
2012,02,24,05,06,4.90
2012,02,24,05,07,4.90
2012,02,24,05,08,4.90
2012,02,24,05,09,4.90
2012,02,24,05,10,4.90
2012,02,24,05,11,4.90
2012,02,24,05,12,4.90
2012,02,24,05,13,4.90
2012,02,24,05,14,4.90
2012,02,24,05,15,4.90
2012,02,24,05,16,4.90
2012,02,24,05,17,4.90
2012,02,24,05,18,4.90
2012,02,24,05,19,4.90
2012,02,24,05,20,4.90
2012,02,24,05,21,4.90
2012,02,24,05,22,4.90
2012,02,24,05,23,4.90
2012,02,24,05,24,4.90
2012,02,24,05,25,4.90
2012,02,24,05,26,4.90
2012,02,24,05,27,5.00
2012,02,24,05,28,5.00
2012,02,24,05,29,5.00
2012,02,24,05,30,5.00
2012,02,24,05,31,5.00
2012,02,24,05,32,5.00
2012,02,24,05,33,5.00
2012,02,24,05,34,5.00
2012,02,24,05,35,5.00
2012,02,24,05,36,5.00
2012,02,24,05,37,5.00
2012,02,24,05,38,4.90
2012,02,24,05,39,4.90
2012,02,24,05,40,4.90
2012,02,24,05,41,4.90
2012,02,24,05,42,4.90
2012,02,24,05,43,4.90
2012,02,24,05,44,4.90
2012,02,24,05,45,4.90
2012,02,24,05,46,4.90
2012,02,24,05,47,4.90
2012,02,24,05,48,4.90
2012,02,24,05,49,4.90
2012,02,24,05,50,4.90
2012,02,24,05,51,4.90
2012,02,24,05,52,4.90
2012,02,24,05,53,5.00
2012,02,24,05,54,5.00
2012,02,24,05,55,5.00
2012,02,24,05,56,5.00
2012,02,24,05,57,4.90
2012,02,24,05,58,4.90
2012,02,24,05,59,4.90
2012,02,24,06,00,4.90
2012,02,24,06,01,4.90
2012,02,24,06,02,4.90
2012,02,24,06,03,4.90
2012,02,24,06,04,4.90
2012,02,24,06,05,4.90
2012,02,24,06,06,4.90
2012,02,24,06,07,4.80
2012,02,24,06,08,4.80
2012,02,24,06,09,4.80
2012,02,24,06,10,4.80
2012,02,24,06,11,4.80
2012,02,24,06,12,4.80
2012,02,24,06,13,4.80
2012,02,24,06,14,4.80
2012,02,24,06,15,4.80
2012,02,24,06,16,4.80
2012,02,24,06,17,4.80
2012,02,24,06,18,4.80
2012,02,24,06,19,4.80
2012,02,24,06,20,4.80
2012,02,24,06,21,4.80
2012,02,24,06,22,4.90
2012,02,24,06,23,4.90
2012,02,24,06,24,4.90
2012,02,24,06,25,4.90
2012,02,24,06,26,4.90
2012,02,24,06,27,4.90
2012,02,24,06,28,4.90
2012,02,24,06,29,4.90
2012,02,24,06,30,4.90
2012,02,24,06,31,4.90
2012,02,24,06,32,4.90
2012,02,24,06,33,4.90
2012,02,24,06,34,4.90
2012,02,24,06,35,4.90
2012,02,24,06,36,4.90
2012,02,24,06,37,4.90
2012,02,24,06,38,5.00
2012,02,24,06,39,5.00
2012,02,24,06,40,5.00
2012,02,24,06,41,5.00
2012,02,24,06,42,5.00
2012,02,24,06,43,5.00
2012,02,24,06,44,5.00
2012,02,24,06,45,5.00
2012,02,24,06,46,5.00
2012,02,24,06,47,5.00
2012,02,24,06,48,5.00
2012,02,24,06,49,5.00
2012,02,24,06,50,5.00
2012,02,24,06,51,5.10
2012,02,24,06,52,5.10
2012,02,24,06,53,5.10
2012,02,24,06,54,5.10
2012,02,24,06,55,5.10
2012,02,24,06,56,5.10
2012,02,24,06,57,5.10
2012,02,24,06,58,5.10
2012,02,24,06,59,5.10
2012,02,24,07,00,5.10
2012,02,24,07,01,5.20
2012,02,24,07,02,5.20
2012,02,24,07,03,5.20
2012,02,24,07,04,5.20
2012,02,24,07,05,5.20
2012,02,24,07,06,5.10
2012,02,24,07,07,5.20
2012,02,24,07,08,5.20
2012,02,24,07,09,5.20
2012,02,24,07,10,5.20
2012,02,24,07,11,5.20
2012,02,24,07,12,5.20
2012,02,24,07,13,5.20
2012,02,24,07,14,5.20
2012,02,24,07,15,5.20
2012,02,24,07,16,5.20
2012,02,24,07,17,5.20
2012,02,24,07,18,5.30
2012,02,24,07,19,5.30
2012,02,24,07,20,5.30
2012,02,24,07,21,5.30
2012,02,24,07,22,5.30
2012,02,24,07,23,5.30
2012,02,24,07,24,5.30
2012,02,24,07,26,5.30
2012,02,24,07,27,5.30
2012,02,24,07,28,5.30
2012,02,24,07,29,5.30
2012,02,24,07,30,5.30
2012,02,24,07,31,5.30
2012,02,24,07,32,5.30
2012,02,24,07,33,5.30
2012,02,24,07,34,5.30
2012,02,24,07,35,5.30
2012,02,24,07,36,5.30
2012,02,24,07,37,5.30
2012,02,24,07,38,5.30
2012,02,24,07,39,5.40
2012,02,24,07,40,5.40
2012,02,24,07,41,5.30
2012,02,24,07,42,5.30
2012,02,24,07,43,5.30
2012,02,24,07,44,5.40
2012,02,24,07,45,5.40
2012,02,24,07,46,5.40
2012,02,24,07,47,5.40
2012,02,24,07,48,5.40
2012,02,24,07,49,5.40
2012,02,24,07,50,5.40
2012,02,24,07,51,5.40
2012,02,24,07,52,5.40
2012,02,24,07,53,5.40
2012,02,24,07,54,5.40
2012,02,24,07,55,5.40
2012,02,24,07,56,5.40
2012,02,24,07,57,5.40
2012,02,24,07,58,5.40
2012,02,24,07,59,5.40
2012,02,24,08,00,5.40
2012,02,24,08,01,5.40
2012,02,24,08,02,5.30
2012,02,24,08,03,5.30
2012,02,24,08,04,5.40
2012,02,24,08,05,5.40
2012,02,24,08,06,5.30
2012,02,24,08,07,5.30
2012,02,24,08,08,5.30
2012,02,24,08,09,5.30
2012,02,24,08,10,5.30
2012,02,24,08,11,5.30
2012,02,24,08,12,5.30
2012,02,24,08,13,5.30
2012,02,24,08,14,5.30
2012,02,24,08,15,5.30
2012,02,24,08,16,5.30
2012,02,24,08,17,5.30
2012,02,24,08,18,5.20
2012,02,24,08,19,5.20
2012,02,24,08,20,5.20
2012,02,24,08,21,5.20
2012,02,24,08,22,5.20
2012,02,24,08,23,5.20
2012,02,24,08,24,5.20
2012,02,24,08,25,5.20
2012,02,24,08,26,5.20
2012,02,24,08,27,5.20
2012,02,24,08,28,5.20
2012,02,24,08,29,5.20
2012,02,24,08,30,5.20
2012,02,24,08,31,5.20
2012,02,24,08,32,5.20
2012,02,24,08,33,5.30
2012,02,24,08,34,5.30
2012,02,24,08,35,5.30
2012,02,24,08,36,5.30
2012,02,24,08,37,5.30
2012,02,24,08,38,5.30
2012,02,24,08,39,5.30
2012,02,24,08,40,5.30
2012,02,24,08,41,5.30
2012,02,24,08,42,5.30
2012,02,24,08,43,5.30
2012,02,24,08,44,5.20
2012,02,24,08,45,5.20
2012,02,24,08,46,5.20
2012,02,24,08,47,5.20
2012,02,24,08,48,5.30
2012,02,24,08,49,5.30
2012,02,24,08,50,5.30
2012,02,24,08,51,5.20
2012,02,24,08,52,5.20
2012,02,24,08,53,5.20
2012,02,24,08,54,5.20
2012,02,24,08,55,5.20
2012,02,24,08,56,5.20
2012,02,24,08,57,5.20
2012,02,24,08,58,5.20
2012,02,24,08,59,5.20
2012,02,24,09,00,5.20
2012,02,24,09,01,5.20
2012,02,24,09,02,5.20
2012,02,24,09,03,5.20
2012,02,24,09,04,5.20
2012,02,24,09,05,5.20
2012,02,24,09,06,5.20
2012,02,24,09,07,5.20
2012,02,24,09,08,5.20
2012,02,24,09,09,5.20
2012,02,24,09,10,5.20
2012,02,24,09,11,5.20
2012,02,24,09,12,5.20
2012,02,24,09,13,5.20
2012,02,24,09,14,5.30
2012,02,24,09,15,5.30
2012,02,24,09,16,5.30
2012,02,24,09,17,5.30
2012,02,24,09,18,5.20
2012,02,24,09,19,5.20
2012,02,24,09,20,5.20
2012,02,24,09,21,5.30
2012,02,24,09,22,5.20
2012,02,24,09,23,5.30
2012,02,24,09,24,5.30
2012,02,24,09,25,5.30
2012,02,24,09,26,5.30
2012,02,24,09,27,5.30
2012,02,24,09,28,5.30
2012,02,24,09,29,5.20
2012,02,24,09,30,5.20
2012,02,24,09,31,5.20
2012,02,24,09,32,5.20
2012,02,24,09,33,5.20
2012,02,24,09,34,5.20
2012,02,24,09,35,5.20
2012,02,24,09,36,5.20
2012,02,24,09,37,5.20
2012,02,24,09,38,5.10
2012,02,24,09,39,5.10
2012,02,24,09,40,5.10
2012,02,24,09,41,5.10
2012,02,24,09,42,5.10
2012,02,24,09,43,5.10
2012,02,24,09,44,5.10
2012,02,24,09,45,5.10
2012,02,24,09,46,5.10
2012,02,24,09,47,5.10
2012,02,24,09,48,5.00
2012,02,24,09,49,5.00
2012,02,24,09,50,5.00
2012,02,24,09,51,5.00
2012,02,24,09,52,5.00
2012,02,24,09,53,5.00
2012,02,24,09,54,5.00
2012,02,24,09,55,5.00
2012,02,24,09,56,5.00
2012,02,24,09,57,4.90
2012,02,24,09,58,5.00
2012,02,24,09,59,5.00
2012,02,24,10,00,5.00
2012,02,24,10,01,5.10
2012,02,24,10,02,5.10
2012,02,24,10,03,5.10
2012,02,24,10,04,5.10
2012,02,24,10,05,5.10
2012,02,24,10,06,5.10
2012,02,24,10,07,5.10
2012,02,24,10,08,5.10
2012,02,24,10,09,5.10
2012,02,24,10,10,5.10
2012,02,24,10,11,5.10
2012,02,24,10,12,5.10
2012,02,24,10,13,5.10
2012,02,24,10,14,5.10
2012,02,24,10,15,5.10
2012,02,24,10,16,5.10
2012,02,24,10,17,5.10
2012,02,24,10,18,5.10
2012,02,24,10,19,5.10
2012,02,24,10,20,5.10
2012,02,24,10,21,5.10
2012,02,24,10,22,5.10
2012,02,24,10,23,5.10
2012,02,24,10,24,5.10
2012,02,24,10,25,5.10
2012,02,24,10,26,5.10
2012,02,24,10,27,5.20
2012,02,24,10,28,5.20
2012,02,24,10,29,5.20
2012,02,24,10,30,5.20
2012,02,24,10,31,5.20
2012,02,24,10,32,5.20
2012,02,24,10,33,5.20
2012,02,24,10,34,5.20
2012,02,24,10,35,5.20
2012,02,24,10,36,5.20
2012,02,24,10,37,5.20
2012,02,24,10,38,5.20
2012,02,24,10,39,5.20
2012,02,24,10,40,5.20
2012,02,24,10,41,5.20
2012,02,24,10,42,5.20
2012,02,24,10,43,5.20
2012,02,24,10,44,5.20
2012,02,24,10,45,5.30
2012,02,24,10,46,5.20
2012,02,24,10,47,5.20
2012,02,24,10,48,5.30
2012,02,24,10,49,5.30
2012,02,24,10,50,5.30
2012,02,24,10,51,5.30
2012,02,24,10,52,5.30
2012,02,24,10,53,5.30
2012,02,24,10,54,5.30
2012,02,24,10,55,5.40
2012,02,24,10,56,5.40
2012,02,24,10,57,5.40
2012,02,24,10,58,5.40
2012,02,24,10,59,5.40
2012,02,24,11,00,5.40
2012,02,24,11,01,5.40
2012,02,24,11,02,5.50
2012,02,24,11,03,5.50
2012,02,24,11,04,5.50
2012,02,24,11,05,5.50
2012,02,24,11,06,5.60
2012,02,24,11,07,5.60
2012,02,24,11,08,5.50
2012,02,24,11,09,5.50
2012,02,24,11,10,5.50
2012,02,24,11,11,5.50
2012,02,24,11,12,5.50
2012,02,24,11,13,5.50
2012,02,24,11,14,5.50
2012,02,24,11,15,5.50
2012,02,24,11,16,5.50
2012,02,24,11,17,5.50
2012,02,24,11,18,5.60
2012,02,24,11,19,5.60
2012,02,24,11,20,5.60
2012,02,24,11,21,5.60
2012,02,24,11,22,5.60
2012,02,24,11,23,5.60
2012,02,24,11,24,5.70
2012,02,24,11,25,5.70
2012,02,24,11,26,5.70
2012,02,24,11,27,5.70
2012,02,24,11,28,5.70
2012,02,24,11,29,5.70
2012,02,24,11,30,5.80
2012,02,24,11,31,5.80
2012,02,24,11,32,5.80
2012,02,24,11,33,5.80
2012,02,24,11,34,5.80
2012,02,24,11,35,5.70
2012,02,24,11,36,5.70
2012,02,24,11,37,5.80
2012,02,24,11,38,5.80
2012,02,24,11,39,5.80
2012,02,24,11,40,5.80
2012,02,24,11,41,5.70
2012,02,24,11,42,5.70
2012,02,24,11,43,5.70
2012,02,24,11,44,5.70
2012,02,24,11,45,5.70
2012,02,24,11,46,5.80
2012,02,24,11,47,5.70
2012,02,24,11,48,5.80
2012,02,24,11,49,5.80
2012,02,24,11,50,5.80
2012,02,24,11,51,5.80
2012,02,24,11,52,5.80
2012,02,24,11,53,5.80
2012,02,24,11,54,5.80
2012,02,24,11,55,5.80
2012,02,24,11,56,5.80
2012,02,24,11,57,5.80
2012,02,24,11,58,5.90
2012,02,24,11,59,5.90
2012,02,24,12,00,5.90
2012,02,24,12,01,5.90
2012,02,24,12,02,5.90
2012,02,24,12,03,5.90
2012,02,24,12,04,6.00
2012,02,24,12,05,6.00
2012,02,24,12,06,6.00
2012,02,24,12,07,6.00
2012,02,24,12,08,5.90
2012,02,24,12,09,5.90
2012,02,24,12,10,5.90
2012,02,24,12,11,5.80
2012,02,24,12,12,5.80
2012,02,24,12,13,5.80
2012,02,24,12,14,5.80
2012,02,24,12,15,5.80
2012,02,24,12,16,5.80
2012,02,24,12,17,5.80
2012,02,24,12,18,5.70
2012,02,24,12,19,5.70
2012,02,24,12,20,5.70
2012,02,24,12,21,5.70
2012,02,24,12,22,5.70
2012,02,24,12,23,5.60
2012,02,24,12,24,5.60
2012,02,24,12,25,5.60
2012,02,24,12,26,5.60
2012,02,24,12,27,5.60
2012,02,24,12,28,5.60
2012,02,24,12,29,5.60
2012,02,24,12,30,5.50
2012,02,24,12,31,5.50
2012,02,24,12,32,5.50
2012,02,24,12,33,5.40
2012,02,24,12,34,5.40
2012,02,24,12,35,5.40
2012,02,24,12,36,5.40
2012,02,24,12,37,5.40
2012,02,24,12,38,5.40
2012,02,24,12,39,5.40
2012,02,24,12,40,5.30
2012,02,24,12,41,5.30
2012,02,24,12,42,5.30
2012,02,24,12,43,5.30
2012,02,24,12,44,5.30
2012,02,24,12,45,5.30
2012,02,24,12,46,5.30
2012,02,24,12,47,5.30
2012,02,24,12,48,5.20
2012,02,24,12,49,5.20
2012,02,24,12,50,5.20
2012,02,24,12,51,5.20
2012,02,24,12,52,5.20
2012,02,24,12,53,5.20
2012,02,24,12,54,5.20
2012,02,24,12,55,5.20
2012,02,24,12,56,5.20
2012,02,24,12,57,5.20
2012,02,24,12,58,5.20
2012,02,24,12,59,5.20
2012,02,24,13,00,5.20
2012,02,24,13,01,5.20
2012,02,24,13,02,5.10
2012,02,24,13,03,5.10
2012,02,24,13,04,5.10
2012,02,24,13,05,5.10
2012,02,24,13,06,5.10
2012,02,24,13,07,5.10
2012,02,24,13,08,5.10
2012,02,24,13,09,5.10
2012,02,24,13,10,5.10
2012,02,24,13,11,5.10
2012,02,24,13,12,5.10
2012,02,24,13,13,5.10
2012,02,24,13,14,5.10
2012,02,24,13,15,5.20
2012,02,24,13,16,5.10
2012,02,24,13,17,5.10
2012,02,24,13,18,5.20
2012,02,24,13,19,5.20
2012,02,24,13,20,5.20
2012,02,24,13,21,5.20
2012,02,24,13,22,5.20
2012,02,24,13,23,5.20
2012,02,24,13,24,5.20
2012,02,24,13,25,5.20
2012,02,24,13,26,5.20
2012,02,24,13,27,5.20
2012,02,24,13,28,5.20
2012,02,24,13,29,5.20
2012,02,24,13,30,5.20
2012,02,24,13,31,5.20
2012,02,24,13,32,5.20
2012,02,24,13,33,5.20
2012,02,24,13,34,5.20
2012,02,24,13,35,5.20
2012,02,24,13,36,5.20
2012,02,24,13,37,5.20
2012,02,24,13,38,5.20
2012,02,24,13,39,5.20
2012,02,24,13,40,5.20
2012,02,24,13,41,5.20
2012,02,24,13,42,5.20
2012,02,24,13,43,5.20
2012,02,24,13,44,5.20
2012,02,24,13,45,5.20
2012,02,24,13,46,5.20
2012,02,24,13,47,5.20
2012,02,24,13,48,5.20
2012,02,24,13,49,5.20
2012,02,24,13,50,5.20
2012,02,24,13,51,5.20
2012,02,24,13,52,5.20
2012,02,24,13,53,5.20
2012,02,24,13,54,5.10
2012,02,24,13,55,5.10
2012,02,24,13,56,5.10
2012,02,24,13,57,5.10
2012,02,24,13,58,5.10
2012,02,24,13,59,5.10
2012,02,24,14,00,5.10
2012,02,24,14,01,5.10
2012,02,24,14,02,5.10
2012,02,24,14,03,5.10
2012,02,24,14,04,5.10
2012,02,24,14,05,5.10
2012,02,24,14,06,5.10
2012,02,24,14,07,5.10
2012,02,24,14,08,5.10
2012,02,24,14,09,5.10
2012,02,24,14,10,5.20
2012,02,24,14,11,5.10
2012,02,24,14,12,5.10
2012,02,24,14,13,5.10
2012,02,24,14,14,5.10
2012,02,24,14,15,5.10
2012,02,24,14,16,5.10
2012,02,24,14,17,5.10
2012,02,24,14,18,5.10
2012,02,24,14,19,5.10
2012,02,24,14,20,5.10
2012,02,24,14,21,5.10
2012,02,24,14,22,5.20
2012,02,24,14,23,5.20
2012,02,24,14,24,5.20
2012,02,24,14,25,5.20
2012,02,24,14,26,5.20
2012,02,24,14,27,5.30
2012,02,24,14,28,5.30
2012,02,24,14,29,5.30
2012,02,24,14,30,5.30
2012,02,24,14,31,5.30
2012,02,24,14,32,5.30
2012,02,24,14,33,5.30
2012,02,24,14,34,5.30
2012,02,24,14,35,5.40
2012,02,24,14,36,5.40
2012,02,24,21,31,5.90
2012,02,24,21,32,5.90
2012,02,24,21,34,6.00
2012,02,24,21,35,6.00
2012,02,24,21,36,6.00
2012,02,24,21,37,6.00
2012,02,24,21,38,6.10
2012,02,24,21,39,6.10
2012,02,24,21,40,6.10
2012,02,24,21,41,6.10
2012,02,24,21,42,6.10
2012,02,24,21,43,6.10
2012,02,24,21,44,6.10
2012,02,24,21,45,6.10
2012,02,24,21,46,6.10
2012,02,24,21,47,6.00
2012,02,24,21,48,6.00
2012,02,24,21,49,6.00
2012,02,24,21,50,5.90
2012,02,24,21,51,5.90
2012,02,24,21,52,5.90
2012,02,24,21,53,5.90
2012,02,24,21,54,5.90
2012,02,24,21,55,5.90
2012,02,24,21,56,5.80
2012,02,24,21,57,5.80
2012,02,24,21,58,5.80
2012,02,24,21,59,5.80
2012,02,24,22,00,5.80
2012,02,24,22,01,5.80
2012,02,24,22,02,5.80
2012,02,24,22,03,5.80
2012,02,24,22,04,5.80
2012,02,24,22,05,5.80
2012,02,24,22,06,5.70
2012,02,24,22,07,5.70
2012,02,24,22,08,5.70
2012,02,24,22,09,5.70
2012,02,24,22,10,5.70
2012,02,24,22,11,5.70
2012,02,24,22,12,5.70
2012,02,24,22,13,5.70
2012,02,24,22,14,5.70
2012,02,24,22,15,5.80
2012,02,24,22,16,5.80
2012,02,24,22,17,5.80
2012,02,24,22,18,5.70
2012,02,24,22,19,5.70
2012,02,24,22,20,5.70
2012,02,24,22,21,5.70
2012,02,24,22,22,5.70
2012,02,24,22,23,5.70
2012,02,24,22,24,5.70
2012,02,24,22,25,5.70
2012,02,24,22,26,5.70
2012,02,24,22,27,5.70
2012,02,24,22,28,5.70
2012,02,24,22,29,5.70
2012,02,24,22,30,5.70
2012,02,24,22,31,5.70
2012,02,24,22,32,5.70
2012,02,24,22,33,5.70
2012,02,24,22,34,5.70
2012,02,24,22,35,5.70
2012,02,24,22,36,5.70
2012,02,24,22,37,5.70
2012,02,24,22,38,5.70
2012,02,24,22,39,5.70
2012,02,24,22,40,5.70
2012,02,24,22,41,5.70
2012,02,24,22,42,5.70
2012,02,24,22,43,5.70
2012,02,24,22,44,5.80
2012,02,24,22,45,5.70
2012,02,24,22,46,5.70
2012,02,24,22,47,5.70
2012,02,24,22,48,5.70
2012,02,24,22,49,5.70
2012,02,24,22,50,5.70
2012,02,24,22,51,5.70
2012,02,24,22,52,5.70
2012,02,24,22,53,5.80
2012,02,24,22,54,5.80
2012,02,24,22,55,5.80
2012,02,24,22,56,5.80
2012,02,24,22,57,5.80
2012,02,24,22,58,5.80
2012,02,24,22,59,5.70
2012,02,24,23,00,5.70
2012,02,24,23,01,5.70
2012,02,24,23,02,5.70
2012,02,24,23,03,5.70
2012,02,24,23,04,5.70
2012,02,24,23,05,5.70
2012,02,24,23,06,5.70
2012,02,24,23,07,5.70
2012,02,24,23,08,5.60
2012,02,24,23,09,5.60
2012,02,24,23,10,5.60
2012,02,24,23,11,5.60
2012,02,24,23,12,5.60
2012,02,24,23,13,5.60
2012,02,24,23,14,5.60
2012,02,24,23,15,5.60
2012,02,24,23,16,5.60
2012,02,24,23,17,5.60
2012,02,24,23,18,5.70
2012,02,24,23,19,5.70
2012,02,24,23,20,5.70
2012,02,24,23,21,5.70
2012,02,24,23,22,5.70
2012,02,24,23,23,5.70
2012,02,24,23,24,5.70
2012,02,24,23,25,5.70
2012,02,24,23,26,5.70
2012,02,24,23,27,5.70
2012,02,24,23,28,5.70
2012,02,24,23,29,5.70
2012,02,24,23,30,5.70
2012,02,24,23,31,5.60
2012,02,24,23,32,5.60
2012,02,24,23,33,5.60
2012,02,24,23,34,5.60
2012,02,24,23,35,5.50
2012,02,24,23,36,5.50
2012,02,24,23,37,5.50
2012,02,24,23,38,5.50
2012,02,24,23,39,5.50
2012,02,24,23,40,5.40
2012,02,24,23,41,5.40
2012,02,24,23,42,5.40
2012,02,24,23,43,5.40
2012,02,24,23,44,5.40
2012,02,24,23,45,5.40
2012,02,24,23,46,5.40
2012,02,24,23,47,5.30
2012,02,24,23,48,5.30
2012,02,24,23,49,5.30
2012,02,24,23,50,5.30
2012,02,24,23,51,5.30
2012,02,24,23,52,5.40
2012,02,24,23,53,5.30
2012,02,24,23,54,5.30
2012,02,24,23,55,5.40
2012,02,24,23,56,5.40
2012,02,24,23,57,5.30
2012,02,24,23,58,5.30
2012,02,24,23,59,5.40
